| time (UTC) | temp C | wind direction | speed KPH | gust KPH | rain 1hr cm | rain 24hr cm | rain mn cm | humidity % | barometer mb |
| 20260510161537 | 26 | 283 | 1.6 | 9.7 | 0.00 | 0.00 | 0.00 | 43 | 1016.9 |
| 20260510160039 | 26 | 225 | 1.6 | 4.8 | 0.00 | 0.00 | 0.00 | 50 | 1016.8 |
| 20260510154550 | 25 | 271 | 3.2 | 14.5 | 0.00 | 0.00 | 0.00 | 46 | 1016.9 |
| 20260510153041 | 25 | 229 | 1.6 | 8.0 | 0.00 | 0.00 | 0.00 | 49 | 1016.8 |
| 20260510151548 | 25 | 180 | 1.6 | 9.7 | 0.00 | 0.00 | 0.00 | 53 | 1017.2 |
| 20260510150051 | 24 | 293 | 3.2 | 8.0 | 0.00 | 0.00 | 0.00 | 53 | 1017.1 |
| 20260510144544 | 24 | 0 | 1.6 | 6.4 | 0.00 | 0.00 | 0.00 | 56 | 1016.9 |
| 20260510143046 | 23 | 352 | 0.0 | 6.4 | 0.00 | 0.00 | 0.00 | 61 | 1016.8 |
| 20260510141543 | 22 | 295 | 1.6 | 8.0 | 0.00 | 0.00 | 0.00 | 60 | 1016.9 |
| 20260510140041 | 22 | 100 | 1.6 | 4.8 | 0.00 | 0.00 | 0.00 | 64 | 1016.7 |
| 20260510134545 | 21 | 327 | 0.0 | 6.4 | 0.00 | 0.00 | 0.00 | 67 | 1016.8 |
| 20260510133051 | 20 | 257 | 0.0 | 6.4 | 0.00 | 0.00 | 0.00 | 70 | 1016.8 |
| 20260510131545 | 19 | 336 | 0.0 | 4.8 | 0.00 | 0.00 | 0.00 | 79 | 1016.7 |
| 20260510130044 | 18 | 312 | 1.6 | 8.0 | 0.00 | 0.00 | 0.00 | 81 | 1016.4 |
| 20260510124553 | 16 | 296 | 0.0 | 4.8 | 0.00 | 0.00 | 0.00 | 92 | 1016.3 |
| 20260510123047 | 15 | 0 | 0.0 | 1.6 | 0.00 | 0.00 | 0.00 | 96 | 1016.0 |
| 20260510121546 | 14 | 0 | 0.0 | 1.6 | 0.00 | 0.00 | 0.00 | 96 | 1015.9 |
| 20260510120044 | 14 | 0 | 0.0 | 0.0 | 0.00 | 0.00 | 0.00 | 97 | 1015.7 |
| 20260510114551 | 13 | 0 | 0.0 | 0.0 | 0.00 | 0.00 | 0.00 | 96 | 1015.6 |
| 20260510113048 | 13 | 0 | 0.0 | 0.0 | 0.00 | 0.00 | 0.00 | 96 | 1015.4 |
| 20260510111539 | 13 | 0 | 0.0 | 0.0 | 0.00 | 0.00 | 0.00 | 95 | 1015.1 |
| 20260510110035 | 13 | 0 | 0.0 | 1.6 | 0.00 | 0.00 | 0.00 | 95 | 1014.9 |
| 20260510104538 | 13 | 0 | 0.0 | 1.6 | 0.00 | 0.00 | 0.00 | 95 | 1014.6 |
| 20260510103045 | 13 | 0 | 0.0 | 0.0 | 0.00 | 0.00 | 0.00 | 95 | 1014.4 |
| 20260510101543 | 13 | 0 | 0.0 | 0.0 | 0.00 | 0.00 | 0.00 | 95 | 1014.3 |
| 20260510100101 | 13 | 0 | 0.0 | 0.0 | 0.00 | 0.00 | 0.00 | 94 | 1014.2 |
| 20260510094556 | 13 | 0 | 0.0 | 1.6 | 0.00 | 0.00 | 0.00 | 94 | 1013.9 |
| 20260510093050 | 14 | 0 | 0.0 | 1.6 | 0.00 | 0.00 | 0.00 | 94 | 1013.8 |
| 20260510091545 | 14 | 0 | 0.0 | 1.6 | 0.00 | 0.00 | 0.00 | 94 | 1013.7 |
| 20260510090044 | 15 | 0 | 0.0 | 1.6 | 0.00 | 0.00 | 0.00 | 94 | 1013.6 |
| 20260510084540 | 15 | 0 | 0.0 | 0.0 | 0.00 | 0.00 | 0.00 | 94 | 1013.7 |
| 20260510083058 | 15 | 0 | 0.0 | 0.0 | 0.00 | 0.00 | 0.00 | 94 | 1013.6 |
| 20260510081547 | 15 | 0 | 0.0 | 0.0 | 0.00 | 0.00 | 0.00 | 94 | 1013.3 |
| 20260510080045 | 15 | 0 | 0.0 | 0.0 | 0.00 | 0.00 | 0.00 | 94 | 1013.3 |
| 20260510074546 | 15 | 0 | 0.0 | 0.0 | 0.00 | 0.00 | 0.00 | 94 | 1013.2 |
| 20260510073050 | 15 | 0 | 0.0 | 0.0 | 0.00 | 0.00 | 0.00 | 93 | 1012.9 |
| 20260510071549 | 15 | 0 | 0.0 | 0.0 | 0.00 | 0.00 | 0.00 | 93 | 1012.8 |
| 20260510070049 | 15 | 0 | 0.0 | 1.6 | 0.00 | 0.00 | 0.00 | 93 | 1012.9 |
| 20260510064551 | 15 | 0 | 0.0 | 0.0 | 0.00 | 0.00 | 0.00 | 93 | 1012.9 |
| 20260510063045 | 15 | 0 | 0.0 | 0.0 | 0.00 | 0.00 | 0.00 | 92 | 1012.9 |
| 20260510061540 | 15 | 0 | 0.0 | 0.0 | 0.00 | 0.00 | 0.00 | 92 | 1012.9 |
| 20260510060044 | 15 | 0 | 0.0 | 0.0 | 0.00 | 0.00 | 0.00 | 92 | 1013.0 |
| 20260510054541 | 15 | 0 | 0.0 | 0.0 | 0.00 | 0.00 | 0.00 | 92 | 1013.3 |
| 20260510053047 | 16 | 0 | 0.0 | 0.0 | 0.00 | 0.00 | 0.00 | 91 | 1013.3 |
| 20260510051601 | 16 | 0 | 0.0 | 0.0 | 0.00 | 0.00 | 0.00 | 91 | 1013.5 |
| 20260510050048 | 16 | 0 | 0.0 | 1.6 | 0.00 | 0.00 | 0.00 | 90 | 1013.6 |
| 20260510044547 | 16 | 0 | 0.0 | 1.6 | 0.00 | 0.00 | 0.00 | 90 | 1013.6 |
| 20260510043043 | 16 | 0 | 0.0 | 0.0 | 0.00 | 0.00 | 0.00 | 89 | 1013.4 |
| 20260510041542 | 16 | 0 | 0.0 | 0.0 | 0.00 | 0.00 | 0.00 | 89 | 1013.3 |
| 20260510040039 | 17 | 0 | 0.0 | 1.6 | 0.00 | 0.00 | 0.00 | 88 | 1013.4 |
| 20260510034535 | 16 | 0 | 0.0 | 1.6 | 0.00 | 0.00 | 0.00 | 89 | 1013.4 |
| 20260510033047 | 16 | 0 | 0.0 | 3.2 | 0.00 | 0.00 | 0.00 | 89 | 1013.4 |
| 20260510031542 | 16 | 0 | 0.0 | 3.2 | 0.00 | 0.00 | 0.00 | 89 | 1013.3 |
| 20260510030056 | 16 | 0 | 0.0 | 0.0 | 0.00 | 0.00 | 0.00 | 89 | 1013.4 |
| 20260510024541 | 16 | 0 | 0.0 | 3.2 | 0.00 | 0.00 | 0.00 | 89 | 1013.2 |
| 20260510023047 | 17 | 0 | 0.0 | 0.0 | 0.00 | 0.00 | 0.00 | 88 | 1013.2 |
| 20260510021545 | 17 | 0 | 0.0 | 0.0 | 0.00 | 0.00 | 0.00 | 88 | 1013.1 |
| 20260510020047 | 17 | 117 | 0.0 | 0.0 | 0.00 | 0.00 | 0.00 | 88 | 1012.9 |
| 20260510014547 | 17 | 0 | 0.0 | 1.6 | 0.00 | 0.00 | 0.00 | 87 | 1012.7 |
| 20260510013046 | 17 | 0 | 0.0 | 1.6 | 0.00 | 0.00 | 0.00 | 87 | 1012.4 |
| 20260510011548 | 17 | 0 | 0.0 | 1.6 | 0.00 | 0.00 | 0.00 | 86 | 1012.1 |
| 20260510010044 | 18 | 0 | 0.0 | 0.0 | 0.00 | 0.00 | 0.00 | 84 | 1011.9 |
| 20260510004547 | 18 | 0 | 0.0 | 0.0 | 0.00 | 0.00 | 0.00 | 83 | 1011.9 |
| 20260510003041 | 19 | 0 | 0.0 | 0.0 | 0.00 | 0.00 | 0.00 | 81 | 1011.8 |
| 20260510001547 | 20 | 0 | 0.0 | 1.6 | 0.00 | 0.00 | 0.00 | 79 | 1011.8 |
| 20260510000047 | 20 | 197 | 0.0 | 3.2 | 0.00 | 0.00 | 0.00 | 77 | 1011.6 |
| 20260509234544 | 20 | 0 | 0.0 | 3.2 | 0.00 | 0.00 | 0.00 | 76 | 1011.2 |
| 20260509233043 | 21 | 0 | 0.0 | 6.4 | 0.00 | 0.00 | 0.00 | 75 | 1011.3 |
| 20260509231542 | 21 | 0 | 0.0 | 3.2 | 0.00 | 0.00 | 0.00 | 74 | 1011.2 |
| 20260509230050 | 21 | 0 | 0.0 | 4.8 | 0.00 | 0.00 | 0.00 | 73 | 1010.8 |
| 20260509224547 | 21 | 113 | 0.0 | 4.8 | 0.00 | 0.00 | 0.00 | 72 | 1010.9 |
| 20260509223045 | 21 | 0 | 0.0 | 9.7 | 0.00 | 0.00 | 0.00 | 71 | 1011.0 |
| 20260509221542 | 21 | 5 | 1.6 | 6.4 | 0.00 | 0.00 | 0.00 | 70 | 1010.9 |
| 20260509220041 | 22 | 73 | 1.6 | 9.7 | 0.00 | 0.00 | 0.00 | 69 | 1010.9 |
| 20260509214548 | 22 | 82 | 0.0 | 6.4 | 0.00 | 0.00 | 0.00 | 70 | 1010.7 |
| 20260509213106 | 22 | 57 | 1.6 | 9.7 | 0.00 | 0.00 | 0.00 | 70 | 1010.7 |
| 20260509211549 | 22 | 80 | 0.0 | 11.3 | 0.00 | 0.00 | 0.00 | 71 | 1010.7 |
| 20260509210100 | 21 | 71 | 0.0 | 4.8 | 0.00 | 0.00 | 0.00 | 72 | 1010.5 |
| 20260509204549 | 22 | 71 | 1.6 | 14.5 | 0.00 | 0.00 | 0.00 | 69 | 1010.7 |
| 20260509203042 | 21 | 93 | 3.2 | 14.5 | 0.00 | 0.00 | 0.00 | 71 | 1010.6 |
| 20260509201547 | 21 | 113 | 1.6 | 9.7 | 0.00 | 0.00 | 0.00 | 70 | 1010.9 |
| 20260509200049 | 21 | 0 | 0.0 | 9.7 | 0.00 | 0.00 | 0.00 | 68 | 1011.0 |
| 20260509194545 | 21 | 36 | 1.6 | 16.1 | 0.00 | 0.00 | 0.00 | 70 | 1010.9 |
| 20260509193045 | 21 | 84 | 3.2 | 14.5 | 0.00 | 0.00 | 0.00 | 69 | 1011.2 |
| 20260509191549 | 21 | 80 | 3.2 | 6.4 | 0.00 | 0.00 | 0.00 | 68 | 1011.2 |
| 20260509190051 | 21 | 0 | 1.6 | 6.4 | 0.00 | 0.00 | 0.00 | 70 | 1011.3 |
| 20260509184549 | 20 | 126 | 1.6 | 8.0 | 0.00 | 0.00 | 0.00 | 70 | 1011.6 |
| 20260509183048 | 21 | 116 | 1.6 | 8.0 | 0.00 | 0.00 | 0.00 | 68 | 1011.6 |
| 20260509181557 | 21 | 121 | 1.6 | 11.3 | 0.00 | 0.00 | 0.00 | 65 | 1011.5 |
| 20260509180048 | 22 | 50 | 3.2 | 12.9 | 0.00 | 0.00 | 0.00 | 61 | 1011.8 |
| 20260509174547 | 22 | 68 | 1.6 | 12.9 | 0.00 | 0.00 | 0.00 | 67 | 1011.9 |
| 20260509173049 | 21 | 107 | 3.2 | 9.7 | 0.00 | 0.00 | 0.00 | 65 | 1012.0 |
| 20260509171549 | 21 | 165 | 3.2 | 12.9 | 0.00 | 0.00 | 0.00 | 67 | 1012.2 |
| 20260509170050 | 21 | 282 | 1.6 | 11.3 | 0.00 | 0.00 | 0.00 | 67 | 1012.7 |
| 20260509164545 | 21 | 230 | 1.6 | 14.5 | 0.00 | 0.00 | 0.00 | 69 | 1013.0 |
| 20260509163042 | 21 | 33 | 3.2 | 11.3 | 0.00 | 0.00 | 0.00 | 68 | 1012.9 |